Weather History for Monroe, LA

Change the Weather History Date:

Tuesday, February 26, 2013

  Actual Average Record
Temperature  
Mean Temperature 48 °F 53 °F  
Max Temperature 56 °F 64 °F 83 °F (1962)
Min Temperature 39 °F 42 °F 24 °F (1960)
Degree Days  
Heating Degree Days 17 12  
Month to date heating degree days 344 388  
Since 1 July heating degree days 1626 1869  
Cooling Degree Days 0 0  
Month to date cooling degree days 0 0  
Year to date cooling degree days 13 4  
Moisture  
Dew Point 34 °F    
Average Humidity 60    
Maximum Humidity 76    
Minimum Humidity 43    
Precipitation  
Precipitation T in 0.17 in 2.49 in (1987)
Month to date precipitation 4.89 4.30  
Year to date precipitation 14.45 9.31  
Snow  
Snow 0.00 in - - ()
Month to date snowfall 0.0  
Since 1 July snowfall 0.3  
Snow Depth 0.00 in    
Sea Level Pressure  
Sea Level Pressure 29.73 in    
Wind  
Wind Speed 16 mph (West)    
Max Wind Speed 29 mph    
Max Gust Speed 36 mph    
Visibility 10 miles    
Events      
T = Trace of Precipitation, MM = Missing Value Source: NWS Daily Summary

Daily Weather History Graph

Daily Weather History Graph

Search for Another Location

Airport:

Trip Planner

Search our weather history database for the weather conditions in past years. The results will help you decide how hot, cold, wet, or windy it might be!

Date:

Astronomy

Feb. 26, 2013 Rise Set
Actual Time 6:38 AM CST 6:03 PM CST
Civil Twilight 6:14 AM CST 6:28 PM CST
Nautical Twilight 5:45 AM CST 6:56 PM CST
Astronomical Twilight 5:17 AM CST 7:25 PM CST
Moon 7:12 PM CST (2/26) 6:47 AM CST (2/26)
Length of Visible Light 12h 13m
Length of Day
11h 24m
Full, 99% of the Moon is Illuminated
Feb 26
Full
Mar 4
Last Quarter
Mar 11
New
Mar 19
First Quarter
Mar 27
Full

Hourly Weather History & Observations

Time (CST) Temp. Windchill Dew Point Humidity Pressure Visibility Wind Dir Wind Speed Gust Speed Precip Events Conditions
12:53 AM 46.9 °F - 33.1 °F 59% 29.54 in 10.0 mi WSW 19.6 mph - N/A   Clear
1:53 AM 46.9 °F - 34.0 °F 61% 29.55 in 10.0 mi WSW 15.0 mph - N/A   Overcast
2:53 AM 46.9 °F - 33.1 °F 59% 29.55 in 10.0 mi WSW 24.2 mph 35.7 mph N/A   Overcast
3:53 AM 46.0 °F 39.3 °F 34.0 °F 63% 29.57 in 10.0 mi WSW 16.1 mph 28.8 mph N/A   Overcast
4:53 AM 45.0 °F 37.4 °F 34.0 °F 65% 29.57 in 10.0 mi WSW 18.4 mph 26.5 mph N/A   Overcast
5:53 AM 45.0 °F 36.4 °F 34.0 °F 65% 29.59 in 10.0 mi West 23.0 mph 27.6 mph N/A   Overcast
6:53 AM 45.0 °F 36.6 °F 33.1 °F 63% 29.61 in 10.0 mi West 21.9 mph 32.2 mph 0.00 in   Overcast
7:53 AM 45.0 °F 36.4 °F 32.0 °F 60% 29.64 in 10.0 mi West 23.0 mph 31.1 mph N/A   Overcast
8:53 AM 45.0 °F 37.1 °F 32.0 °F 60% 29.69 in 10.0 mi West 19.6 mph 33.4 mph N/A   Overcast
9:53 AM 45.0 °F 37.1 °F 32.0 °F 60% 29.71 in 10.0 mi West 19.6 mph 31.1 mph N/A   Overcast
10:53 AM 46.9 °F - 32.0 °F 56% 29.73 in 10.0 mi West 20.7 mph 28.8 mph N/A   Overcast
11:53 AM 46.9 °F - 32.0 °F 56% 29.76 in 10.0 mi West 21.9 mph 31.1 mph N/A   Overcast
12:53 PM 50.0 °F - 33.1 °F 52% 29.75 in 10.0 mi West 21.9 mph 28.8 mph N/A   Overcast
1:53 PM 50.0 °F - 33.1 °F 52% 29.77 in 10.0 mi WNW 23.0 mph 35.7 mph N/A   Mostly Cloudy
2:53 PM 54.0 °F - 35.1 °F 49% 29.76 in 10.0 mi WNW 17.3 mph 23.0 mph N/A   Scattered Clouds
3:53 PM 55.0 °F - 34.0 °F 45% 29.77 in 10.0 mi WNW 19.6 mph 26.5 mph N/A   Clear
4:53 PM 55.0 °F - 34.0 °F 45% 29.78 in 10.0 mi WNW 18.4 mph 25.3 mph N/A   Clear
5:53 PM 53.1 °F - 34.0 °F 48% 29.81 in 10.0 mi WNW 12.7 mph - N/A   Clear
6:53 PM 48.0 °F - 35.1 °F 61% 29.85 in 10.0 mi WNW 6.9 mph - N/A   Clear
7:53 PM 46.9 °F - 34.0 °F 61% 29.87 in 10.0 mi WNW 5.8 mph - N/A   Clear
8:53 PM 45.0 °F - 34.0 °F 65% 29.89 in 10.0 mi Calm Calm - N/A   Clear
9:53 PM 45.0 °F - 34.0 °F 65% 29.90 in 10.0 mi Calm Calm - N/A   Clear
10:53 PM 43.0 °F 41.3 °F 35.1 °F 74% 29.92 in 10.0 mi South 3.5 mph - N/A   Clear
11:53 PM 39.9 °F - 35.1 °F 83% 29.93 in 10.0 mi Calm Calm - N/A   Clear